Regional Weather Roundup
Issued by NWS Kansas City/Pleasant Hill, MO

Home | Current Version | Previous Version | Graphics & Text | Print | Product List | Glossary Off
Versions: 1 2 3 4 5 6 7 8 9 10 11 12 13 14 15 16 17 18 19 20 21 22 23 24 25 26 27 28 29 30 31 32 33 34 35 36 37 38 39 40 41 42 43 44 45 46 47 48 49 50

000
ASUS43 KEAX 231411
RWREAX

WEATHER ROUNDUP FOR EASTERN KANSAS AND NORTHWEST MISSOURI
NATIONAL WEATHER SERVICE KANSAS CITY/PLEASANT HILL MO
900 AM CDT WED APR 23 2014

KSZ040-057-103>105-MOZ028-029-037-043-231500-
...KANSAS CITY METROPOLITAN AREA...

CITY           SKY/WX    TMP DP  RH WIND       PRES   REMARKS
K.C. INTL      CLOUDY    54  37  52 SE12      30.02R
K.C. DOWNTOWN  CLOUDY    57  35  43 SE9       30.00F
LEES SUMMIT    CLOUDY    55  35  47 SE9       30.02S
OLATHE - IXD   CLOUDY    54  36  50 SE14      29.98F
OLATHE - OJC   CLOUDY    54  36  50 SE13      29.99F
LAWRENCE       CLOUDY    58  36  43 SE15G26   29.98F

$$

MOZ001>008-011>017-020>025-030>033-038>040-044>046-053-054-231500-
...NORTHERN AND CENTRAL MISSOURI...

CITY           SKY/WX    TMP DP  RH WIND       PRES   REMARKS
ST. JOSEPH     LGT RAIN  53  39  59 SE16      30.00S
MOSBY          LGT RAIN  54  36  50 SE7       30.04R
WARRENSBURG    CLOUDY   N/A N/A N/A E9        30.03S
WHITEMAN AFB   PTSUNNY   54  30  40 SE9       30.02F
CLINTON        CLOUDY    55  39  54 SE9       30.03F
SEDALIA        CLOUDY    54  37  52 SE10      30.06R
WARSAW         NOT AVBL
MARSHALL         N/A     57  39  51 E10G16    30.06F HAZE
CHILLICOTHE      N/A     54  36  50 SE6       30.07R
MOBERLY        PTSUNNY   52  36  54 E12       30.10R
KIRKSVILLE     PTSUNNY   47  35  63 E10       30.10R

$$

MOZ041-047>049-056>058-063>065-088>090-097-231500-
...EASTERN AND SOUTHERN MISSOURI...

CITY           SKY/WX    TMP DP  RH WIND       PRES   REMARKS
ST. LOUIS INTL MOSUNNY   52  36  54 E14       30.14R
SPIRIT OF STL  MOSUNNY   52  38  58 E8        30.13R
COLUMBIA       CLOUDY    54  36  50 SE10      30.08S
JEFFERSON CITY PTSUNNY   53  38  56 SE9       30.08F
MEXICO         MOSUNNY   48  39  71 E14       30.10F
HANNIBAL       MOSUNNY   54  28  37 E13G18    30.12S
ROLLA          SUNNY     54  34  46 SE12      30.07R
LEBANON        SUNNY     59  32  36 SE10      30.06S
OSAGE BEACH    MOSUNNY   55  34  44 E8        30.07F
SPRINGFIELD    MOSUNNY   59  36  42 SE18      30.03S
BRANSON        MOSUNNY   57  37  47 SE12      30.06R
NEVADA         CLOUDY    57  37  47 SE14G20   30.01S
JOPLIN         MOSUNNY   59  39  47 SE14G20   29.99S
WEST PLAINS    SUNNY     57  32  38 E14       30.06F
MALDEN         MOSUNNY   61  41  48 E7        30.08F

$$

IAZ060-094-KSZ022-034>040-054-083-096-NEZ052-066-093-231500-
...KANSAS...SOUTHEAST NEBRASKA AND IOWA...

CITY           SKY/WX    TMP DP  RH WIND       PRES   REMARKS
TOPEKA         CLOUDY    58  38  47 SE13      29.96F
MANHATTAN      LGT RAIN  58  40  51 SE10      29.91R
EMPORIA        PTSUNNY   58  38  47 E12       29.92R
CHANUTE        CLOUDY    57  38  48 SE13      29.95F
WICHITA        PTSUNNY   62  38  40 S20G26    29.87R
OMAHA          LGT RAIN  49  40  71 SE23      29.91F
LINCOLN        LGT RAIN  52  41  66 SE20G30   29.86F
FALLS CITY     LGT RAIN  52  43  71 SE14      29.94F
LAMONI         CLOUDY    50  32  50 SE12G20   30.03F
DES MOINES     CLOUDY    51  32  48 SE12      30.05F

$$




USA.gov is the U.S. government's official web portal to all federal, state and local government web resources and services.